User: anonymous   Login
Location: Luz Observatory
(34.5000°N, 117.2833°W)
Time: 06:44:26
(UTC-07:00)
Language:

Cosmos 1452 Rocket - Orbit

View from above orbital plane
View from above orbital plane
View from above satellite
View from above satellite

Ground track
Ground track

The orbit data is extracted from the following two-line orbital elements,

1 13992U 83031B   17173.94274480 +.00000012 +00000-0 +12970-4 0  9992
2 13992 074.0532 356.5880 0005468 328.1354 182.3069 14.36088626789345
Epoch (UTC): 22 June 2017 22:37:33
Eccentricity: 0.0005468
inclination: 74.0532°
perigee height: 767 km
apogee height: 775 km
right ascension of ascending node: 356.5880°
argument of perigee: 328.1354°
revolutions per day: 14.36088626
mean anomaly at epoch: 182.3069°
orbit number at epoch: 78934

The dashed part of the orbit path shows where the satellite is in the earth's shadow,  

DLR